When you browse on this site, cookies collect data to enhance your experience and personalize the content and advertising you see.
Visit our Privacy Policy to learn more. By continuing to use the site, you agree to this use of cookies and data.
  • In Switzerland
  • List of Countries
  • For 7 days
  • Water Temperature
  • Weather Map
  • Weather Widgets
  • user-avatar
    Login

    Hourly Weather Leicester

    Today, 8 December, Sunday

    Time Temperature Precipitation Wind Pressure Humidity
    00:00 +8°C° 0 mm 10 mps 743 mmHg 84%
    01:00 +8°C° 0.8 mm 10 mps 742 mmHg 86%
    02:00 +9°C° 0.8 mm 10 mps 741 mmHg 88%
    03:00 +11°C° 0.8 mm 10 mps 740 mmHg 90%
    04:00 +9°C° 0 mm 10 mps 740 mmHg 85%
    05:00 +8°C° 0 mm 9 mps 740 mmHg 80%
    06:00 +8°C° 0 mm 7 mps 740 mmHg 79%
    07:00 +6°C° 0 mm 7 mps 741 mmHg 79%
    08:00 +6°C° 0 mm 7 mps 741 mmHg 78%
    09:00 +5°C° 0 mm 8 mps 741 mmHg 77%
    10:00 +6°C° 0 mm 8 mps 741 mmHg 73%
    11:00 +6°C° 0 mm 9 mps 741 mmHg 70%
    12:00 +7°C° 0 mm 8 mps 741 mmHg 70%
    13:00 +6°C° 0 mm 8 mps 740 mmHg 69%
    14:00 +6°C° 0 mm 8 mps 740 mmHg 68%
    15:00 +5°C° 0 mm 8 mps 739 mmHg 67%
    16:00 +5°C° 0 mm 8 mps 739 mmHg 69%
    17:00 +4°C° 0 mm 8 mps 739 mmHg 71%
    18:00 +4°C° 0 mm 8 mps 738 mmHg 72%
    19:00 +4°C° 0 mm 8 mps 738 mmHg 74%
    20:00 +3°C° 0 mm 7 mps 737 mmHg 75%
    21:00 +3°C° 0 mm 7 mps 736 mmHg 76%
    22:00 +3°C° 0 mm 7 mps 736 mmHg 78%
    23:00 +3°C° 0 mm 7 mps 735 mmHg 81%

    Tomorrow, 9 December, Monday

    Time Temperature Precipitation Wind Pressure Humidity
    00:00 +3°C° 0 mm 7 mps 735 mmHg 83%
    01:00 +3°C° 0.1 mm 6 mps 735 mmHg 85%
    02:00 +3°C° 0.1 mm 5 mps 735 mmHg 87%
    03:00 +4°C° 0.1 mm 4 mps 735 mmHg 89%
    04:00 +4°C° 0.1 mm 6 mps 737 mmHg 83%
    05:00 +4°C° 0.1 mm 7 mps 739 mmHg 77%
    06:00 +3°C° 0.1 mm 9 mps 741 mmHg 71%
    07:00 +3°C° 0 mm 9 mps 743 mmHg 70%
    08:00 +3°C° 0 mm 9 mps 745 mmHg 70%
    09:00 +2°C° 0 mm 9 mps 748 mmHg 70%
    10:00 +4°C° 0 mm 8 mps 749 mmHg 67%
    11:00 +4°C° 0 mm 8 mps 751 mmHg 64%
    12:00 +4°C° 0 mm 7 mps 753 mmHg 62%
    13:00 +4°C° 0 mm 6 mps 754 mmHg 63%
    14:00 +3°C° 0 mm 6 mps 755 mmHg 64%
    15:00 +3°C° 0 mm 5 mps 756 mmHg 65%
    16:00 +3°C° 0 mm 4 mps 757 mmHg 68%
    17:00 +3°C° 0 mm 3 mps 758 mmHg 71%
    18:00 +2°C° 0 mm 3 mps 759 mmHg 74%
    19:00 +2°C° 0 mm 3 mps 760 mmHg 77%
    20:00 +2°C° 0 mm 3 mps 760 mmHg 80%
    21:00 +3°C° 0 mm 2 mps 761 mmHg 83%
    22:00 +2°C° 0 mm 3 mps 761 mmHg 84%
    23:00 +1°C° 0 mm 3 mps 761 mmHg 86%

    Day after tomorrow, 10 December, Tuesday

    Time Temperature Precipitation Wind Pressure Humidity
    00:00 +1°C° 0 mm 3 mps 760 mmHg 87%
    01:00 +2°C° 0 mm 3 mps 760 mmHg 86%
    02:00 +1°C° 0 mm 4 mps 759 mmHg 85%
    03:00 +1°C° 0 mm 5 mps 759 mmHg 84%
    04:00 +1°C° 0 mm 5 mps 758 mmHg 84%
    05:00 +2°C° 0 mm 6 mps 757 mmHg 84%
    06:00 +2°C° 0 mm 7 mps 756 mmHg 84%
    07:00 +2°C° 0.1 mm 8 mps 755 mmHg 84%
    08:00 +3°C° 0.1 mm 9 mps 754 mmHg 85%
    09:00 +5°C° 0.1 mm 10 mps 753 mmHg 85%
    10:00 +6°C° 0.4 mm 10 mps 752 mmHg 86%
    11:00 +6°C° 0.4 mm 11 mps 750 mmHg 87%
    12:00 +7°C° 0.4 mm 12 mps 749 mmHg 88%
    13:00 +7°C° 0.4 mm 12 mps 747 mmHg 88%
    14:00 +8°C° 0.4 mm 12 mps 746 mmHg 88%
    15:00 +9°C° 0.4 mm 12 mps 744 mmHg 89%
    16:00 +9°C° 1.5 mm 11 mps 744 mmHg 89%
    17:00 +9°C° 1.5 mm 10 mps 744 mmHg 89%
    18:00 +9°C° 1.5 mm 10 mps 744 mmHg 89%
    19:00 +7°C° 1 mm 9 mps 745 mmHg 86%
    20:00 +6°C° 1 mm 7 mps 746 mmHg 82%
    21:00 +5°C° 1 mm 6 mps 747 mmHg 79%
    22:00 +4°C° 0 mm 6 mps 747 mmHg 79%
    23:00 +5°C° 0 mm 5 mps 748 mmHg 79%

    11 December, Wednesday

    Time Temperature Precipitation Wind Pressure Humidity
    00:00 +3°C° 0 mm 5 mps 748 mmHg 79%
    01:00 +4°C° 0 mm 4 mps 748 mmHg 80%
    02:00 +3°C° 0 mm 4 mps 748 mmHg 81%
    03:00 +3°C° 0 mm 4 mps 748 mmHg 82%
    04:00 +1°C° 0 mm 4 mps 748 mmHg 83%
    05:00 +1°C° 0 mm 4 mps 748 mmHg 84%
    06:00 +2°C° 0 mm 3 mps 747 mmHg 85%
    07:00 +1°C° 0 mm 4 mps 747 mmHg 85%
    08:00 +2°C° 0 mm 5 mps 747 mmHg 85%
    09:00 +2°C° 0 mm 6 mps 746 mmHg 85%
    10:00 +2°C° 0 mm 6 mps 745 mmHg 84%
    11:00 +3°C° 0 mm 6 mps 745 mmHg 82%
    12:00 +4°C° 0 mm 6 mps 744 mmHg 81%
    13:00 +3°C° 0.1 mm 6 mps 743 mmHg 80%
    14:00 +3°C° 0.1 mm 6 mps 742 mmHg 80%
    15:00 +3°C° 0.1 mm 6 mps 741 mmHg 79%
    16:00 +2°C° 0 mm 6 mps 742 mmHg 80%
    17:00 +1°C° 0 mm 5 mps 742 mmHg 81%
    18:00 +1°C° 0 mm 5 mps 742 mmHg 83%
    19:00 +1°C° 0 mm 5 mps 743 mmHg 82%
    20:00 0°C° 0 mm 5 mps 744 mmHg 81%
    21:00 0°C° 0 mm 5 mps 744 mmHg 80%
    22:00 0°C° 0 mm 5 mps 745 mmHg 79%
    23:00 0°C° 0 mm 5 mps 745 mmHg 79%

    12 December, Thursday

    Time Temperature Precipitation Wind Pressure Humidity
    00:00 0°C° 0 mm 5 mps 745 mmHg 78%
    01:00 0°C° 0 mm 5 mps 745 mmHg 79%
    02:00 -1°C° 0 mm 6 mps 745 mmHg 79%
    03:00 -1°C° 0 mm 6 mps 745 mmHg 79%
    04:00 -1°C° 0 mm 6 mps 745 mmHg 79%
    05:00 0°C° 0 mm 5 mps 744 mmHg 80%
    06:00 0°C° 0 mm 5 mps 744 mmHg 80%
    07:00 +1°C° 0.2 mm 6 mps 743 mmHg 84%
    08:00 0°C° 0.2 mm 7 mps 742 mmHg 88%
    09:00 +1°C° 0.2 mm 8 mps 741 mmHg 92%
    10:00 +2°C° 0.4 mm 8 mps 739 mmHg 91%
    11:00 +3°C° 0.4 mm 9 mps 736 mmHg 90%
    12:00 +5°C° 0.4 mm 9 mps 734 mmHg 88%
    13:00 +5°C° 1.5 mm 9 mps 732 mmHg 89%
    14:00 +6°C° 1.5 mm 9 mps 730 mmHg 91%
    15:00 +6°C° 1.5 mm 9 mps 728 mmHg 92%
    16:00 +6°C° 0.9 mm 9 mps 727 mmHg 89%
    17:00 +6°C° 0.9 mm 9 mps 727 mmHg 85%
    18:00 +6°C° 0.9 mm 9 mps 726 mmHg 82%
    19:00 +5°C° 0.1 mm 10 mps 727 mmHg 81%
    20:00 +2°C° 0.1 mm 10 mps 727 mmHg 79%
    21:00 +1°C° 0.1 mm 10 mps 728 mmHg 77%
    22:00 +1°C° 0 mm 10 mps 728 mmHg 76%
    23:00 +1°C° 0 mm 10 mps 728 mmHg 74%

    13 December, Friday

    Time Temperature Precipitation Wind Pressure Humidity
    00:00 0°C° 0 mm 10 mps 728 mmHg 72%
    01:00 0°C° 0 mm 10 mps 728 mmHg 72%
    02:00 0°C° 0 mm 10 mps 728 mmHg 73%
    03:00 0°C° 0 mm 10 mps 728 mmHg 73%
    04:00 -1°C° 0 mm 11 mps 728 mmHg 71%
    05:00 -1°C° 0 mm 11 mps 729 mmHg 68%
    06:00 0°C° 0 mm 12 mps 729 mmHg 65%
    07:00 +1°C° 0 mm 11 mps 730 mmHg 66%
    08:00 +1°C° 0 mm 11 mps 731 mmHg 66%
    09:00 +1°C° 0 mm 10 mps 732 mmHg 66%
    10:00 +1°C° 0 mm 10 mps 733 mmHg 64%
    11:00 +2°C° 0 mm 11 mps 733 mmHg 63%
    12:00 +2°C° 0 mm 11 mps 734 mmHg 62%
    13:00 +2°C° 0 mm 10 mps 734 mmHg 63%
    14:00 +2°C° 0 mm 9 mps 735 mmHg 64%
    15:00 +2°C° 0 mm 9 mps 735 mmHg 65%
    16:00 +1°C° 0 mm 8 mps 735 mmHg 68%
    17:00 +1°C° 0 mm 8 mps 736 mmHg 70%
    18:00 0°C° 0 mm 7 mps 736 mmHg 72%
    19:00 0°C° 0 mm 7 mps 736 mmHg 73%
    20:00 +1°C° 0 mm 6 mps 737 mmHg 74%
    21:00 +1°C° 0 mm 6 mps 737 mmHg 76%
    22:00 +1°C° 0.1 mm 5 mps 736 mmHg 79%
    23:00 +1°C° 0.1 mm 5 mps 736 mmHg 83%
    Show more